Back to catalog

STARLINK-36146

AliveCommunicationsVLEO
NORAD 67426·PAYLOAD·🇺🇸 United States

Launched Jan 12, 2026 from Cape Canaveral Space Force Station

Loading…

Next Passes (next 24 hours)

TLE

FreshSource: CelesTrak SupGP

Epoch: Sep 14, 2026, 23:23 UTC

1 67426C 26005Y   26257.97479167  .00025734  00000+0  93213-3 0  2578
2 67426  42.9995 249.3897 0001457 263.1926 349.7127 15.27563984    17

Track STARLINK-36146 in real time with AllMySat

Download on the App Store